This demonstration page uses our WeatherBlox Daily Observations layout. Learn more.

38.89511, -77.03637

Hourly Observations for August 4, 2015

Temp ( °F °C ) Dew Point ( °F °C ) Humidity (%) Winds ( mph kmh ) Pressure ( in mb ) Visibility ( mi km ) Precip ( " mm )
12:52 am 00:52 Mostly Cloudy with Haze 81 27 70 21 70 70 SSW 6 9 29.83 1010 5 8.04672 0 0
1:52 am 01:52 Mostly Cloudy with Haze 81 27 68 20 66 66 SSW 8 13 29.85 1011 6 9.656064 0 0
2:52 am 02:52 Mostly Cloudy with Haze 79 26 66 19 65 65 SSW 5 7 29.83 1010 5 8.04672 0 0
3:52 am 03:52 Mostly Cloudy 79 26 66 19 65 65 SW 3 6 29.85 1011 8 12.874752 0 0
4:52 am 04:52 Cloudy with Haze 81 27 68 20 66 66 SSW 5 7 29.88 1012 6 9.656064 0 0
5:15 am 05:15 Mostly Cloudy 81 27 63 17 54 54 NNW 20 31 29.91 1013 10 16.09344 0 0
5:18 am 05:18 Mostly Cloudy 81 27 63 17 54 54 NNW 22 35 29.91 1013 10 16.09344 0 0
5:52 am 05:52 Mostly Cloudy 77 25 61 16 57 57 NNW 6 9 29.91 1013 10 16.09344 0 0
6:52 am 06:52 Mostly Cloudy 79 26 61 16 54 54 NE 3 6 29.91 1013 10 16.09344 0 0
7:52 am 07:52 Partly Cloudy 81 27 63 17 54 54 WSW 5 7 29.94 1014 10 16.09344 0 0
8:52 am 08:52 Mostly Sunny 82 28 64 18 55 55 SSW 8 13 29.94 1014 10 16.09344 0 0
9:52 am 09:52 Mostly Sunny 84 29 68 20 58 58 SW 5 7 29.94 1014 10 16.09344 0 0
10:52 am 10:52 Mostly Sunny 90 32 66 19 46 46 WNW 7 11 29.94 1014 10 16.09344 0 0
11:52 am 11:52 Mostly Sunny 90 32 70 21 52 52 SSE 6 9 29.94 1014 10 16.09344 0 0
12:52 pm 12:52 Mostly Sunny 93 34 66 19 41 41 SSW 10 17 29.91 1013 10 16.09344 0 0
1:52 pm 13:52 Partly Cloudy 93 34 63 17 36 36 W 8 13 29.91 1013 10 16.09344 0 0
2:52 pm 14:52 Partly Cloudy 95 35 63 17 34 34 SW 14 22 29.88 1012 10 16.09344 0 0
3:52 pm 15:52 Mostly Cloudy 97 36 63 17 32 32 WSW 15 24 29.88 1012 10 16.09344 0 0
4:52 pm 16:52 Mostly Cloudy 93 34 68 20 44 44 SSW 14 22 29.88 1012 10 16.09344 0 0
5:52 pm 17:52 Mostly Cloudy 93 34 64 18 39 39 SW 10 17 29.85 1011 10 16.09344 0 0
6:52 pm 18:52 Mostly Cloudy with Light Rain 90 32 66 19 46 46 W 13 20 29.88 1012 10 16.09344 0.001 0.001
7:52 pm 19:52 Mostly Cloudy 84 29 68 20 58 58 NE 7 11 29.88 1012 10 16.09344 0.001 0.001
8:52 pm 20:52 Mostly Cloudy 82 28 70 21 66 66 N 6 9 29.91 1013 10 16.09344 0 0
9:52 pm 21:52 Cloudy with Light Rain 82 28 70 21 66 66 WNW 3 6 29.91 1013 9 14.484096 0.02 0.508
10:52 pm 22:52 Mostly Cloudy 81 27 70 21 70 70 N 3 6 29.91 1013 10 16.09344 0.02 0.508
11:52 pm 23:52 Partly Cloudy 79 26 72 22 79 79 NNW 8 13 29.94 1014 10 16.09344 0 0

Powered by AerisWeather